User: anonymous   Login
Location: Unspecified
(0.0000°N, 0.0000°E)
Time: 22:29:00
(UTC+00:00)
Language:

Skynet 4B - Orbit

View from above orbital plane
View from above orbital plane
View from above satellite
View from above satellite

Ground track
Ground track

The orbit data is extracted from the following two-line orbital elements,

1 19687U 88109A   18109.07627796 -.00000356 +00000-0 +00000-0 0  9995
2 19687 015.3784 002.2062 0005403 286.2221 073.6883 00.99679292088451
Epoch (UTC): 19 April 2018 01:49:50
Eccentricity: 0.0005403
inclination: 15.3784°
perigee height: 35930 km
apogee height: 35976 km
right ascension of ascending node: 2.2062°
argument of perigee: 286.2221°
revolutions per day: 0.99679292
mean anomaly at epoch: 73.6883°
orbit number at epoch: 8845

The dashed part of the orbit path shows where the satellite is in the earth's shadow,  

DLR